EW4769 Weather Reports


time (UTC)temp
C
wind
direction
speed
KPH
gust
KPH
rain 1hr
cm
rain 24hr
cm
rain mn
cm
humidity
%
barometer
mb
20260506042916 12 82 0.0 0.0 0.00 0.00 0.00 89 1016.9
20260506042420 12 82 0.0 0.0 0.00 0.00 0.00 89 1016.9
20260506042416 12 82 0.0 0.0 0.00 0.00 0.00 89 1016.8
20260506041414 12 82 0.0 0.0 0.00 0.00 0.00 88 1016.8
20260506040914 12 82 0.0 0.0 0.00 0.00 0.00 88 1016.8
20260506040414 12 82 0.0 1.6 0.00 0.00 0.00 89 1016.7
20260506035914 12 82 0.0 1.6 0.00 0.00 0.00 88 1016.6
20260506035414 12 82 0.0 1.6 0.00 0.00 0.00 88 1016.6
20260506034914 12 82 0.0 6.4 0.00 0.00 0.00 88 1016.5
20260506034415 12 82 0.0 6.4 0.00 0.00 0.00 88 1016.5
20260506033914 12 205 0.0 0.0 0.00 0.00 0.00 89 1016.5
20260506033415 12 205 0.0 3.2 0.00 0.00 0.00 88 1016.4
20260506032919 12 205 0.0 3.2 0.00 0.00 0.00 88 1016.3
20260506032914 12 205 0.0 3.2 0.00 0.00 0.00 88 1016.3
20260506031914 12 205 0.0 4.8 0.00 0.00 0.00 88 1016.1
20260506031414 12 205 0.0 4.8 0.00 0.00 0.00 88 1016.2
20260506030914 12 242 0.0 0.0 0.00 0.00 0.00 89 1016.1
20260506030414 12 242 0.0 0.0 0.00 0.00 0.00 89 1016.0
20260506025914 12 242 0.0 0.0 0.00 0.00 0.00 89 1016.0
20260506025414 12 242 0.0 0.0 0.00 0.00 0.00 89 1015.9
20260506024915 13 242 0.0 0.0 0.00 0.00 0.00 88 1015.9
20260506024420 13 242 0.0 0.0 0.00 0.00 0.00 88 1015.6
20260506024414 13 242 0.0 0.0 0.00 0.00 0.00 88 1015.6
20260506023914 13 242 0.0 0.0 0.00 0.00 0.00 89 1015.7
20260506023414 13 242 0.0 0.0 0.00 0.00 0.00 88 1015.7
20260506022914 13 242 0.0 0.0 0.00 0.00 0.00 88 1015.6
20260506021914 13 242 0.0 0.0 0.00 0.00 0.00 88 1015.6
20260506021414 13 123 0.0 0.0 0.00 0.00 0.00 88 1015.6
20260506020915 13 123 0.0 0.0 0.00 0.00 0.00 88 1015.6
20260506020418 13 122 0.0 0.0 0.00 0.00 0.00 87 1015.7
20260506020414 13 122 0.0 0.0 0.00 0.00 0.00 88 1015.7
20260506015414 13 122 0.0 0.0 0.00 0.00 0.00 87 1015.7
20260506014914 13 122 0.0 0.0 0.00 0.00 0.00 88 1015.7
20260506014414 13 122 0.0 0.0 0.00 0.00 0.00 89 1015.6
20260506013914 13 122 0.0 0.0 0.00 0.00 0.00 89 1015.6
20260506013413 13 122 0.0 0.0 0.00 0.00 0.00 89 1015.6
20260506012913 13 122 0.0 0.0 0.00 0.00 0.00 88 1015.5
20260506012518 13 227 0.0 0.0 0.00 0.00 0.00 88 1015.5
20260506012417 13 227 0.0 0.0 0.00 0.00 0.00 88 1015.5
20260506012412 13 122 0.0 0.0 0.00 0.00 0.00 88 1015.5
20260506010912 13 227 0.0 0.0 0.00 0.00 0.00 88 1015.4
20260506010412 13 227 0.0 0.0 0.00 0.00 0.00 88 1015.4
20260506005912 13 227 0.0 0.0 0.00 0.00 0.00 88 1015.4
20260506005414 13 227 0.0 0.0 0.00 0.00 0.00 87 1015.3
20260506005410 13 227 0.0 0.0 0.00 0.00 0.00 88 1015.4
20260506004410 14 227 0.0 0.0 0.00 0.00 0.00 87 1015.3
20260506003913 14 227 0.0 0.0 0.00 0.00 0.00 86 1015.3
20260506003909 14 227 0.0 0.0 0.00 0.00 0.00 86 1015.3
20260506003515 14 227 0.0 0.0 0.00 0.00 0.00 85 1015.2
20260506002415 15 227 0.0 0.0 0.00 0.00 0.00 83 1015.1
20260506002410 14 227 0.0 0.0 0.00 0.00 0.00 85 1015.2
20260506001910 15 227 0.0 0.0 0.00 0.00 0.00 83 1015.2
20260506000909 15 227 0.0 0.0 0.00 0.00 0.00 82 1015.0
20260506000410 15 234 0.0 0.0 0.00 0.00 0.00 81 1015.0
20260505235911 15 221 0.0 0.0 0.00 0.00 0.00 79 1015.0
20260505235906 15 234 0.0 0.0 0.00 0.00 0.00 79 1015.0
20260505234910 15 98 0.0 0.0 0.00 0.00 0.00 80 1014.9
20260505234906 15 230 0.0 0.0 0.00 0.00 0.00 79 1014.9
20260505233910 15 232 0.0 3.2 0.00 0.00 0.00 79 1014.9
20260505233906 15 82 0.0 0.0 0.00 0.00 0.00 80 1015.0
20260505233510 15 227 1.6 8.0 0.00 0.00 0.00 79 1014.9
20260505232408 15 317 1.6 6.4 0.00 0.00 0.00 83 1015.0
20260505232404 15 227 1.6 8.0 0.00 0.00 0.00 80 1014.9
20260505231403 14 268 1.6 4.8 0.00 0.00 0.00 82 1015.0
20260505230903 14 267 1.6 9.7 0.00 0.00 0.00 82 1015.1
20260505230404 14 267 1.6 9.7 0.00 0.00 0.00 83 1015.1
20260505225904 14 253 1.6 6.4 0.00 0.00 0.00 82 1015.1
20260505225403 14 200 0.0 3.2 0.00 0.00 0.00 82 1015.1
20260505224908 14 112 0.0 1.6 0.00 0.00 0.00 84 1015.2
20260505224904 14 114 0.0 0.0 0.00 0.00 0.00 83 1015.1
20260505223908 14 112 0.0 3.2 0.00 0.00 0.00 83 1015.3
20260505223904 14 112 0.0 3.2 0.00 0.00 0.00 83 1015.3
20260505222903 14 112 0.0 1.6 0.00 0.00 0.00 85 1015.3
20260505222403 14 112 0.0 1.6 0.00 0.00 0.00 85 1015.3
20260505221904 14 112 0.0 1.6 0.00 0.00 0.00 85 1015.4
20260505221402 13 112 0.0 1.6 0.00 0.00 0.00 85 1015.4
20260505220902 13 112 0.0 3.2 0.00 0.00 0.00 84 1015.4
20260505220401 13 112 0.0 3.2 0.00 0.00 0.00 84 1015.5
20260505215902 13 112 0.0 4.8 0.00 0.00 0.00 84 1015.5
20260505215402 13 112 1.6 4.8 0.00 0.00 0.00 84 1015.5
20260505214901 13 113 0.0 4.8 0.00 0.00 0.00 84 1015.5
20260505214401 14 115 0.0 4.8 0.00 0.00 0.00 84 1015.5
20260505213902 14 116 0.0 4.8 0.00 0.00 0.00 84 1015.5
20260505213408 14 198 0.0 3.2 0.00 0.00 0.00 83 1015.6
20260505213403 14 121 0.0 1.6 0.00 0.00 0.00 84 1015.6
20260505213006 14 198 1.6 6.4 0.00 0.00 0.00 84 1015.6
20260505212504 14 198 3.2 6.4 0.00 0.00 0.00 83 1015.7
20260505211400 14 236 1.6 4.8 0.00 0.00 0.00 83 1015.6
20260505210859 14 223 0.0 4.8 0.00 0.00 0.00 84 1015.6
20260505210359 13 109 0.0 3.2 0.00 0.00 0.00 83 1015.6
20260505205859 13 242 0.0 4.8 0.00 0.00 0.00 84 1015.5
20260505205403 13 71 1.6 9.7 0.00 0.00 0.00 84 1015.6
20260505205359 13 242 0.0 4.8 0.00 0.00 0.00 83 1015.5
20260505204359 13 255 1.6 9.7 0.00 0.00 0.00 84 1015.6
20260505203900 13 175 0.0 0.0 0.00 0.00 0.00 84 1015.7
20260505203358 13 243 0.0 0.0 0.00 0.00 0.00 84 1015.6
20260505202902 13 301 1.6 6.4 0.00 0.00 0.00 84 1015.7
20260505202858 13 280 1.6 6.4 0.00 0.00 0.00 84 1015.6
20260505201858 13 252 0.0 4.8 0.00 0.00 0.00 83 1015.6
20260505201357 13 253 0.0 0.0 0.00 0.00 0.00 82 1015.7
20260505200904 13 242 0.0 0.0 0.00 0.00 0.00 83 1015.9
20260505200900 13 244 0.0 0.0 0.00 0.00 0.00 83 1015.7
20260505195902 13 200 0.0 4.8 0.00 0.00 0.00 82 1015.9
20260505195857 13 240 0.0 4.8 0.00 0.00 0.00 82 1015.9
20260505194857 13 244 0.0 0.0 0.00 0.00 0.00 83 1015.9
20260505194358 13 243 0.0 0.0 0.00 0.00 0.00 82 1015.9
20260505193858 13 78 1.6 3.2 0.00 0.00 0.00 84 1016.0
20260505193403 13 238 3.2 6.4 0.00 0.00 0.00 82 1016.0
20260505193359 13 238 3.2 6.4 0.00 0.00 0.00 83 1016.0
20260505192359 13 240 1.6 6.4 0.00 0.00 0.00 82 1016.0
20260505191902 13 248 3.2 6.4 0.00 0.00 0.00 82 1016.0
20260505191858 13 248 1.6 4.8 0.00 0.00 0.00 83 1016.0
20260505190856 13 266 3.2 6.4 0.00 0.00 0.00 82 1016.0
20260505190405 13 221 3.2 11.3 0.00 0.00 0.00 82 1015.9
20260505190355 13 306 3.2 8.0 0.00 0.00 0.00 83 1015.9
20260505185958 13 238 3.2 11.3 0.00 0.00 0.00 82 1015.9
20260505184853 13 221 3.2 11.3 0.00 0.00 0.00 81 1015.7
20260505184354 13 269 1.6 9.7 0.00 0.00 0.00 81 1015.7
20260505183853 13 262 3.2 11.3 0.00 0.00 0.00 81 1015.7
20260505183354 13 217 1.6 11.3 0.00 0.00 0.00 80 1015.7
20260505182853 13 187 0.0 6.4 0.00 0.00 0.00 81 1015.9
20260505182353 13 179 0.0 6.4 0.00 0.00 0.00 79 1015.9
20260505181853 13 9 1.6 6.4 0.00 0.00 0.00 82 1015.7
20260505181353 13 235 1.6 6.4 0.00 0.00 0.00 80 1015.6
20260505180858 13 236 0.0 1.6 0.00 0.00 0.00 80 1015.6
20260505180853 13 250 0.0 6.4 0.00 0.00 0.00 79 1015.6
20260505180457 13 236 1.6 4.8 0.00 0.00 0.00 80 1015.5
20260505175353 13 236 1.6 4.8 0.00 0.00 0.00 81 1015.5
20260505174853 13 277 1.6 4.8 0.00 0.00 0.00 81 1015.4
20260505174353 13 275 0.0 4.8 0.00 0.00 0.00 80 1015.4
20260505173853 12 288 0.0 0.0 0.00 0.00 0.00 80 1015.3
20260505173353 12 263 0.0 0.0 0.00 0.00 0.00 81 1015.1
20260505172853 12 252 0.0 0.0 0.00 0.00 0.00 81 1015.3
20260505172353 12 247 0.0 0.0 0.00 0.00 0.00 81 1015.3
20260505171853 12 247 0.0 0.0 0.00 0.00 0.00 83 1015.2
20260505171354 12 246 0.0 0.0 0.00 0.00 0.00 82 1015.2
20260505170853 12 207 0.0 3.2 0.00 0.00 0.00 82 1015.3
20260505170353 12 108 0.0 4.8 0.00 0.00 0.00 83 1015.3
20260505165853 12 108 0.0 4.8 0.00 0.00 0.00 83 1015.2
20260505165353 12 111 1.6 6.4 0.00 0.00 0.00 85 1015.2
20260505164853 12 82 1.6 6.4 0.00 0.00 0.00 84 1015.1
20260505164353 12 285 1.6 6.4 0.00 0.00 0.00 85 1015.0
20260505163858 11 219 0.0 4.8 0.00 0.00 0.00 86 1015.0
20260505163853 12 278 1.6 6.4 0.00 0.00 0.00 86 1014.9
20260505163352 11 213 1.6 4.8 0.00 0.00 0.00 85 1014.9
20260505162350 11 34 0.0 0.0 0.00 0.00 0.00 87 1015.1
20260505161852 11 34 0.0 0.0 0.00 0.00 0.00 87 1015.0
20260505161355 11 34 0.0 0.0 0.00 0.00 0.00 88 1015.0
20260505161351 11 34 0.0 0.0 0.00 0.00 0.00 87 1015.0
20260505160955 11 34 0.0 3.2 0.00 0.00 0.00 88 1014.9
20260505160349 11 34 0.0 1.6 0.00 0.00 0.00 88 1014.9
20260505153345 10 53 0.0 1.6 0.00 0.00 0.00 89 1014.9
20260505152844 10 53 0.0 3.2 0.00 0.00 0.00 89 1014.8
20260505152342 10 53 0.0 3.2 0.00 0.00 0.00 89 1014.7
20260505151846 10 54 0.0 0.0 0.00 0.00 0.00 91 1014.6
20260505151842 10 54 0.0 1.6 0.00 0.00 0.00 90 1014.7
20260505150840 10 54 0.0 0.0 0.00 0.00 0.00 91 1014.6
20260505150341 10 54 0.0 0.0 0.00 0.00 0.00 91 1014.6
20260505140335 10 355 0.0 0.0 0.00 0.00 0.00 91 1014.1
20260505124331 9 355 0.0 0.0 0.00 0.00 0.00 91 1013.9
20260505123830 9 355 0.0 0.0 0.00 0.00 0.00 91 1013.9
20260505123330 9 355 0.0 0.0 0.00 0.00 0.00 91 1013.9
20260505122830 9 355 0.0 0.0 0.00 0.00 0.00 91 1014.1
20260505122330 9 355 0.0 0.0 0.00 0.00 0.00 92 1014.1
20260505121830 9 355 0.0 0.0 0.00 0.00 0.00 92 1014.1
20260505121328 9 355 0.0 0.0 0.00 0.00 0.00 92 1014.1
20260505120828 9 355 0.0 0.0 0.00 0.00 0.00 92 1014.1
20260505120329 9 355 0.0 1.6 0.00 0.00 0.00 92 1014.1
20260505115828 9 355 0.0 1.6 0.00 0.00 0.00 92 1014.1
20260505115328 9 208 0.0 1.6 0.00 0.00 0.00 92 1014.2
20260505114829 9 226 0.0 0.0 0.00 0.00 0.00 93 1014.2
20260505114328 9 226 0.0 0.0 0.00 0.00 0.00 92 1014.1
20260505113833 9 226 0.0 0.0 0.00 0.00 0.00 92 1014.0
20260505113829 9 226 0.0 0.0 0.00 0.00 0.00 92 1014.1
20260505112828 9 226 0.0 0.0 0.00 0.00 0.00 92 1014.1
20260505112328 9 226 0.0 0.0 0.00 0.00 0.00 92 1014.0
20260505111828 9 226 0.0 0.0 0.00 0.00 0.00 92 1014.0
20260505111333 9 226 0.0 0.0 0.00 0.00 0.00 92 1014.0
20260505111328 9 226 0.0 0.0 0.00 0.00 0.00 92 1014.0
20260505110327 10 226 0.0 0.0 0.00 0.00 0.00 92 1014.0
20260505101929 10 226 0.0 0.0 0.00 0.03 0.00 91 1013.9
20260505101829 10 226 0.0 0.0 0.00 0.00 0.00 91 1014.0
20260505101824 10 226 0.0 0.0 0.00 0.00 0.00 91 1014.0
20260505100324 10 226 0.0 0.0 0.00 0.03 0.00 91 1014.0
20260505095824 10 226 0.0 0.0 0.00 0.03 0.00 91 1014.0
20260505095324 10 226 0.0 0.0 0.00 0.03 0.00 92 1014.1
20260505094824 10 226 0.0 0.0 0.00 0.03 0.00 91 1014.1
20260505094330 10 226 0.0 0.0 0.00 0.03 0.00 91 1014.1
20260505094324 10 226 0.0 0.0 0.00 0.03 0.00 91 1014.2
20260505093824 10 226 0.0 0.0 0.00 0.03 0.00 91 1014.1
20260505093323 10 226 0.0 0.0 0.00 0.03 0.00 91 1014.1
20260505092324 10 226 0.0 0.0 0.00 0.03 0.00 91 1014.2
20260505091824 10 226 0.0 0.0 0.00 0.03 0.00 91 1014.3
20260505091324 10 226 0.0 0.0 0.00 0.03 0.00 92 1014.3
20260505090824 10 226 0.0 0.0 0.00 0.03 0.00 92 1014.4
20260505090324 10 226 0.0 0.0 0.00 0.03 0.00 92 1014.5
20260505085824 10 226 0.0 0.0 0.00 0.03 0.00 91 1014.5
20260505085324 10 226 0.0 0.0 0.00 0.03 0.00 91 1014.6
20260505084823 10 226 0.0 0.0 0.00 0.03 0.00 91 1014.6
20260505084324 10 226 0.0 0.0 0.00 0.03 0.00 91 1014.5
20260505083825 10 226 0.0 0.0 0.00 0.03 0.00 91 1014.5
20260505083324 10 226 0.0 0.0 0.00 0.03 0.00 91 1014.5
20260505082833 10 226 0.0 0.0 0.00 0.03 0.00 91 1014.6
20260505082828 10 226 0.0 0.0 0.00 0.03 0.00 91 1014.6
20260505081821 10 226 0.0 0.0 0.00 0.03 0.00 91 1014.6
20260505081319 10 226 0.0 0.0 0.00 0.03 0.00 91 1014.6
20260505080820 10 226 0.0 0.0 0.00 0.03 0.00 91 1014.8
20260505080320 10 226 0.0 0.0 0.00 0.03 0.00 91 1014.8
20260505075820 10 226 0.0 0.0 0.00 0.03 0.00 91 1014.7
20260505075320 10 226 0.0 0.0 0.00 0.03 0.00 92 1014.7
20260505074817 10 226 0.0 0.0 0.00 0.03 0.00 91 1014.7
20260505074317 10 226 0.0 0.0 0.00 0.03 0.00 91 1014.7
20260505073822 10 226 0.0 0.0 0.00 0.03 0.00 91 1014.6
20260505073817 10 226 0.0 0.0 0.00 0.03 0.00 91 1014.7
20260505072818 10 226 0.0 0.0 0.00 0.03 0.00 91 1014.6
20260505072318 10 226 0.0 0.0 0.00 0.03 0.00 91 1014.5
20260505071818 10 226 0.0 0.0 0.00 0.03 0.00 91 1014.4
20260505071318 10 226 0.0 0.0 0.00 0.03 0.00 91 1014.4
20260505070816 10 226 0.0 0.0 0.00 0.03 0.00 91 1014.4
20260505070320 10 226 0.0 0.0 0.00 0.03 0.03 90 1014.5
20260505070316 10 226 0.0 0.0 0.00 0.03 0.00 90 1014.5
20260505065920 10 226 0.0 0.0 0.00 0.03 0.03 89 1014.5
20260505064817 10 226 0.0 0.0 0.00 0.03 0.03 89 1014.5
20260505064317 10 226 0.0 0.0 0.00 0.03 0.03 88 1014.5
20260505063817 10 226 0.0 0.0 0.00 0.03 0.03 88 1014.4
20260505063316 10 226 0.0 0.0 0.00 0.03 0.03 88 1014.4
20260505062819 10 226 0.0 0.0 0.00 0.03 0.03 87 1014.3
20260505062815 10 226 0.0 0.0 0.00 0.03 0.03 87 1014.4
20260505061814 11 226 0.0 0.0 0.00 0.03 0.03 87 1014.4
20260505061315 11 226 0.0 0.0 0.00 0.03 0.03 86 1014.3
20260505060813 11 226 0.0 0.0 0.00 0.03 0.03 86 1014.3
20260505060312 11 226 0.0 0.0 0.00 0.03 0.03 86 1014.4
20260505055812 11 226 0.0 0.0 0.00 0.03 0.03 86 1014.4
20260505055322 11 226 0.0 0.0 0.00 0.03 0.03 86 1014.4
20260505055318 11 226 0.0 0.0 0.00 0.03 0.03 86 1014.4
20260505054316 11 226 0.0 0.0 0.00 0.03 0.03 85 1014.5
20260505054310 11 226 0.0 0.0 0.00 0.03 0.03 85 1014.5
20260505053310 11 227 0.0 0.0 0.00 0.03 0.03 85 1014.7
20260505052814 11 227 0.0 0.0 0.00 0.03 0.03 86 1014.8
20260505052810 11 227 0.0 0.0 0.00 0.03 0.03 85 1014.7
20260505051810 11 227 0.0 0.0 0.00 0.03 0.03 85 1014.8
20260505051310 11 227 0.0 0.0 0.00 0.03 0.03 85 1014.7
20260505050810 11 227 0.0 0.0 0.00 0.03 0.03 86 1014.8
20260505050310 11 227 0.0 0.0 0.00 0.03 0.03 85 1014.8